RH
26 26 27 27 28 29 29 30 29 28 29 27 24 23 19 15 14 12 9 9 10 10 10 11 10 11 11 11 12 12 12 12 13 15 17 17 18 20 20 20 19 19 19 19 19 17 14 12 11 10 8 7 6 6 8 10 11 13 20 23 22 22 18 16 15 13 15 13 14 19 24 26 26 32 44 51 55 57 59 62 65 63 62 64 65 66 68 68
25 25 25 26 27 27 27 27 26 23 25 25 22 20 19 17 15 15 13 10 9 9 9 9 9 9 9 10 10 11 12 13 16 19 19 18 19 19 20 20 19 19 19 20 21 21 20 16 14 13 10 8 9 10 11 11 11 15 23 23 19 21 18 15 17 19 23 22 20 20 23 27 27 31 39 50 59 59 54 56 60 60 60 62 65 68 68 68
26 25 25 26 26 25 23 22 22 18 18 21 21 19 18 17 15 15 14 10 9 9 9 9 8 9 9 10 11 11 12 13 18 21 18 17 18 18 19 20 20 20 20 21 22 25 24 21 21 19 15 13 11 12 13 12 12 15 20 23 20 20 17 13 17 22 25 27 26 23 22 25 28 33 42 50 59 62 56 54 58 59 58 58 62 66 68 69
27 27 26 25 23 21 19 17 16 15 15 17 20 22 19 17 16 14 12 9 10 10 10 10 10 10 11 12 12 14 14 16 23 22 18 18 17 16 16 17 18 19 21 21 21 24 25 24 24 22 20 17 12 13 16 15 14 14 18 23 21 16 13 13 16 20 24 27 28 26 25 27 30 36 49 55 57 63 60 56 60 60 58 56 58 64 68 69
28 28 26 25 20 16 16 15 13 13 15 14 16 18 18 17 15 12 10 10 11 11 11 11 11 11 12 12 13 15 15 20 26 24 21 22 20 18 17 17 17 19 21 20 20 21 22 24 24 24 24 18 13 13 15 16 15 17 18 19 18 14 12 14 15 19 22 24 29 30 30 30 30 36 51 59 58 61 64 63 63 61 58 57 56 60 65 69
28 28 26 25 20 14 13 13 12 13 13 14 14 15 16 16 14 11 11 11 12 12 12 12 12 12 12 12 13 15 16 20 24 23 24 25 23 23 23 23 23 23 22 21 20 20 20 22 23 25 27 22 19 17 16 17 16 18 21 18 17 15 14 15 14 17 19 22 28 30 30 30 32 37 46 57 61 61 65 68 68 66 63 60 56 56 59 65
27 27 27 25 17 13 13 12 12 11 11 12 13 15 17 17 14 12 12 12 12 12 12 12 12 13 13 12 14 17 18 20 22 22 23 24 23 25 26 28 30 29 27 24 22 22 23 24 23 25 29 28 26 25 21 19 17 19 23 21 18 16 15 15 13 15 16 19 24 24 28 32 36 40 44 54 62 61 63 68 70 69 67 64 58 55 55 59
27 24 24 23 16 12 12 13 12 10 9 9 12 15 16 17 14 12 13 13 12 12 13 13 13 13 13 13 16 18 19 21 22 22 23 22 24 26 27 29 33 34 33 33 30 27 26 27 27 25 28 30 29 29 26 22 21 22 23 21 20 18 16 15 14 14 15 17 19 21 28 33 35 39 44 51 57 58 60 63 68 70 68 65 61 57 54 54
24 21 19 18 15 14 12 11 10 9 8 9 10 13 14 13 13 12 13 13 12 12 13 13 13 14 14 15 18 21 22 23 23 23 24 24 25 27 30 32 33 35 36 39 39 34 31 30 30 28 29 30 28 29 28 27 28 27 25 23 21 19 18 16 15 14 14 16 17 21 29 33 34 39 44 50 53 54 57 58 61 66 67 65 62 60 57 52
18 16 16 15 15 15 13 9 9 9 9 9 10 12 12 11 12 11 12 13 12 13 14 14 14 15 18 19 22 26 25 23 25 27 29 29 27 28 33 35 34 35 37 40 43 40 38 35 31 28 28 28 27 29 29 29 31 30 29 26 22 20 18 17 16 14 14 16 19 24 31 33 34 39 44 49 53 53 58 64 62 61 62 62 61 60 58 53
15 14 15 15 15 15 12 9 9 9 9 10 11 12 12 11 12 12 12 13 13 14 15 16 16 18 23 23 24 28 26 25 29 31 33 32 31 33 37 39 37 36 37 40 42 41 40 38 33 31 31 30 28 29 30 30 28 29 30 30 28 24 20 17 16 15 14 16 21 25 31 36 37 39 42 47 54 55 56 69 78 75 66 59 57 58 61 57
14 15 14 16 15 13 11 9 8 9 10 10 11 12 13 13 12 13 13 13 14 15 16 17 17 21 27 27 25 27 27 29 31 32 34 35 35 40 43 45 44 42 41 39 37 35 35 35 35 36 37 33 31 31 31 28 26 27 28 31 35 32 26 21 18 17 16 16 18 22 27 34 39 38 40 46 54 57 55 60 78 89 81 65 57 57 59 60
15 15 15 15 14 11 11 10 9 9 10 11 11 12 13 13 13 14 14 14 15 16 17 18 19 24 29 28 27 29 30 32 33 34 37 38 40 45 48 49 50 51 51 46 39 35 33 34 35 39 41 37 35 33 30 27 24 24 26 33 37 35 33 27 22 20 19 18 17 20 25 30 40 41 40 47 52 56 58 55 63 80 84 75 67 62 58 58
16 16 16 15 12 12 11 10 10 10 11 11 11 12 12 13 14 15 16 15 15 16 17 19 22 26 29 29 29 31 32 34 35 36 39 41 44 49 53 56 58 60 60 55 46 39 37 36 34 39 43 42 38 34 33 32 30 29 29 35 38 37 40 36 29 24 20 19 17 18 21 23 35 43 41 46 51 55 59 58 59 65 70 72 74 70 61 55
17 17 17 14 12 13 12 12 12 11 12 12 12 13 12 14 17 17 17 16 16 17 18 22 24 25 30 31 30 32 34 35 36 38 40 42 46 52 57 62 68 69 65 60 53 47 44 40 37 39 41 43 42 37 37 37 37 35 28 29 36 38 40 38 35 33 27 25 21 18 19 21 30 41 42 44 50 53 57 59 60 61 60 63 68 64 58 53
16 15 14 12 12 13 13 13 13 13 14 13 13 13 13 17 19 18 18 18 19 19 20 25 24 25 32 31 29 33 35 35 37 39 41 43 47 51 55 62 71 74 69 64 58 55 53 47 45 45 41 41 45 44 41 39 40 39 29 25 30 32 33 35 38 43 42 36 31 25 24 27 31 35 37 40 46 50 54 57 60 62 58 56 57 54 50 49
13 12 11 11 12 12 13 14 14 15 15 14 14 14 15 19 20 19 19 20 23 24 24 26 26 27 32 30 30 34 35 37 38 40 42 44 48 51 55 61 70 74 71 67 62 60 59 54 53 52 48 47 50 51 47 45 45 44 40 35 33 31 30 33 37 44 48 45 44 41 35 35 34 31 32 34 38 43 47 52 56 60 59 54 51 50 48 45
12 12 12 11 12 12 13 14 15 16 15 15 14 13 16 19 20 21 20 20 24 28 28 26 26 28 29 29 32 34 36 38 38 41 43 45 48 50 55 60 69 74 72 70 68 66 63 60 59 58 57 57 56 56 53 53 53 48 48 47 43 38 33 35 40 43 47 49 52 53 48 44 38 33 31 30 32 35 37 43 50 55 57 55 51 48 46 44
12 13 12 12 12 12 13 14 16 17 17 17 15 14 18 18 21 23 20 20 24 28 30 27 25 26 26 29 33 33 35 37 39 42 43 44 47 49 52 57 67 74 73 72 72 70 67 65 66 63 63 64 63 62 59 59 58 51 51 51 45 42 38 39 43 44 45 48 54 57 58 57 49 42 37 33 32 32 31 33 39 45 49 51 51 48 45 42
13 13 13 13 13 12 13 14 16 18 17 16 15 16 18 17 21 24 20 21 26 28 29 27 26 27 27 28 31 31 34 38 40 43 43 43 46 48 50 54 61 69 73 74 73 73 72 70 69 65 64 67 67 66 64 62 60 53 51 49 45 44 42 41 44 46 44 42 47 53 58 62 59 53 48 41 37 34 32 30 30 35 38 41 43 43 41 39
13 13 13 13 14 13 14 15 16 18 18 17 16 16 20 21 22 24 21 23 27 28 28 28 28 27 26 28 31 31 34 37 39 42 43 43 46 48 50 52 57 63 69 71 69 71 73 71 72 71 68 66 67 68 66 63 61 56 52 47 45 45 42 42 45 47 46 40 42 47 51 55 58 59 58 51 45 40 35 33 30 30 32 33 33 34 34 34
14 14 14 14 15 14 14 15 17 18 18 19 18 18 22 22 22 23 23 25 27 28 29 29 28 28 28 31 33 32 34 37 39 42 44 44 46 47 49 52 56 59 61 63 65 70 70 68 68 67 66 64 65 67 65 61 58 56 52 45 43 44 41 41 43 46 48 42 41 45 45 45 49 54 59 57 53 46 41 37 34 32 30 30 28 28 29 29
15 15 15 15 15 15 16 17 18 18 19 21 21 21 23 22 23 24 24 28 31 29 28 28 28 29 31 33 32 32 35 39 41 42 43 46 47 47 48 52 56 56 56 57 60 64 65 64 63 58 57 58 60 64 63 59 56 52 48 44 43 43 39 38 40 42 44 38 37 41 41 40 41 46 52 56 55 51 49 45 41 37 33 30 28 27 27 28
17 17 17 16 16 17 17 17 19 19 19 23 24 23 24 23 24 25 26 33 36 30 27 27 28 30 31 31 32 33 36 39 42 43 43 46 48 49 49 50 54 55 55 56 55 54 55 57 58 56 56 56 56 60 60 56 56 54 50 45 44 42 39 38 37 37 38 36 35 37 36 36 38 40 43 49 53 52 52 52 48 43 38 34 33 30 27 28
18 19 19 18 18 18 20 23 24 21 20 25 28 26 25 24 24 26 29 34 36 31 28 29 30 31 32 32 33 34 37 39 41 43 44 45 48 50 50 48 50 54 55 56 53 50 49 47 46 51 55 55 53 55 55 52 52 53 50 45 42 40 40 40 39 40 40 36 34 40 46 44 38 38 39 43 50 50 47 50 51 49 45 41 37 33 30 29
20 21 21 20 20 20 24 29 26 23 25 28 29 27 26 25 25 28 34 37 36 32 28 30 32 33 32 32 33 33 36 38 40 43 44 45 49 50 51 49 47 51 53 53 52 49 48 46 44 47 50 51 53 54 54 53 54 54 51 49 48 46 46 47 48 52 53 47 45 50 58 55 42 35 34 37 45 47 45 46 46 47 49 45 40 36 35 33
21 22 23 23 23 23 26 28 25 25 28 27 27 28 26 26 26 29 34 35 32 28 27 30 32 33 32 31 32 33 33 36 40 43 43 45 49 49 51 51 47 47 49 50 52 50 50 51 51 52 51 50 51 52 53 53 57 58 53 52 53 50 51 54 56 61 62 59 56 53 57 64 53 34 28 33 37 41 46 47 42 42 47 47 43 39 38 37
23 24 25 24 25 26 26 26 25 27 28 26 27 27 26 27 27 32 35 28 22 25 28 31 33 32 31 31 33 32 31 34 39 41 41 45 49 48 50 53 50 49 48 48 51 51 53 55 54 55 57 54 50 50 50 47 50 53 50 49 49 49 51 53 56 60 63 66 61 49 53 68 61 35 27 34 34 32 37 42 42 39 42 46 46 43 40 39
25 27 27 26 27 28 28 28 27 27 28 28 27 27 28 28 30 34 34 26 23 27 28 29 32 32 29 32 34 32 31 33 36 39 39 43 48 50 52 52 52 53 50 48 52 53 53 54 55 55 56 55 53 54 50 44 44 46 46 47 49 50 50 51 55 55 59 65 55 41 47 63 60 37 27 34 35 30 26 30 37 38 38 40 41 41 40 40
27 29 28 28 28 29 31 31 31 29 29 29 28 29 30 30 35 33 24 21 24 26 27 28 30 29 29 31 33 33 33 35 36 37 39 41 45 49 52 52 52 55 54 51 54 54 52 53 56 57 57 56 55 55 52 47 44 44 49 51 50 51 52 55 58 56 60 59 43 35 45 58 59 37 21 25 27 25 23 22 27 34 37 37 36 37 37 37
28 30 30 30 29 31 32 32 32 31 31 32 31 33 33 32 38 32 19 20 25 27 29 29 28 30 33 32 32 33 34 36 38 39 40 41 43 47 51 53 54 55 56 55 55 55 54 56 55 54 56 57 56 55 55 53 49 48 54 55 53 54 55 59 62 64 69 58 41 41 44 53 59 36 18 22 21 19 21 20 21 25 32 35 34 35 35 34
29 30 32 31 31 33 33 33 34 33 33 35 34 36 37 33 33 30 22 22 27 30 30 27 26 31 36 36 37 39 35 34 38 41 42 42 42 44 48 52 55 55 56 56 55 54 54 56 55 53 54 56 58 60 60 60 57 59 61 62 65 67 65 66 68 71 73 56 44 48 46 52 58 40 24 25 22 19 20 18 19 19 23 28 31 33 35 35
30 32 33 33 34 34 34 35 36 36 36 38 39 40 39 34 31 31 27 22 23 28 29 28 28 31 33 32 36 42 38 34 37 39 41 43 41 42 45 48 52 55 58 59 57 56 56 56 57 58 56 55 57 60 61 62 64 67 68 69 75 77 76 77 75 76 73 59 50 53 55 62 63 49 38 32 25 23 21 19 18 16 17 20 24 28 32 37
33 34 35 36 36 36 37 37 37 38 38 40 44 41 34 34 35 32 29 28 28 30 31 32 31 30 30 30 33 40 37 33 37 39 40 43 42 41 43 46 49 51 57 64 63 63 64 59 58 58 56 56 59 59 60 64 67 69 70 73 76 76 77 80 80 79 76 68 63 64 67 69 63 56 52 46 40 34 27 24 22 19 17 17 19 26 31 35
38 39 39 39 39 39 39 38 38 39 39 43 48 41 33 35 36 31 31 34 33 33 34 35 33 29 30 34 35 36 35 35 38 40 41 43 43 41 41 44 47 48 54 62 65 67 71 65 59 58 57 58 59 56 58 65 70 72 75 78 80 76 75 78 79 79 80 81 78 74 72 64 55 52 54 58 59 53 45 38 31 25 21 20 21 24 29 32
43 44 44 44 43 43 42 41 41 40 43 49 48 43 41 38 34 33 36 36 34 33 33 32 33 31 31 33 32 31 34 37 39 40 40 42 42 41 41 42 45 47 50 57 63 67 72 69 65 66 65 62 59 56 57 62 68 76 79 79 80 79 79 83 83 80 85 90 81 75 72 64 59 57 58 65 70 71 68 58 44 32 23 24 26 24 25 30
48 49 50 49 48 48 47 45 44 44 48 51 46 44 47 41 35 40 41 37 35 35 31 26 28 32 30 28 28 30 32 34 38 42 43 42 40 39 41 41 41 45 49 53 59 64 69 70 68 70 70 65 62 61 63 63 65 74 79 77 80 84 86 91 93 90 93 92 78 71 71 67 67 66 65 71 76 79 79 70 59 45 31 27 28 26 25 26
50 51 52 53 54 54 51 49 49 51 54 54 51 49 49 42 41 46 43 37 37 37 33 27 26 30 32 29 27 28 29 30 36 43 45 44 39 37 41 41 39 42 45 48 54 61 67 69 66 68 71 70 67 69 71 71 70 73 76 76 81 89 92 95 98 95 94 92 78 69 68 68 71 70 67 72 77 79 79 74 68 60 45 33 27 28 27 27
52 54 56 58 60 58 55 53 55 58 57 55 56 55 52 49 47 47 43 39 38 37 34 32 29 30 34 33 30 28 26 27 32 38 40 41 40 38 40 40 41 43 43 45 51 58 64 67 65 65 70 73 73 71 71 73 76 80 83 84 86 91 93 94 96 95 94 94 85 76 72 69 69 69 69 73 77 79 82 80 74 65 53 38 29 28 28 28
54 59 61 62 62 60 57 57 60 64 61 57 58 57 53 50 49 49 47 43 40 36 35 38 34 31 33 35 32 29 27 29 30 31 31 37 40 40 41 42 44 47 45 44 49 54 60 66 65 63 66 71 71 67 66 69 74 80 85 88 90 92 93 93 93 93 96 99 96 91 80 66 62 66 71 78 79 79 84 83 75 67 53 39 32 32 31 27
58 63 63 62 63 61 58 60 65 68 67 63 61 59 56 53 52 54 53 48 45 40 39 41 38 34 34 34 31 30 32 33 32 28 28 32 36 38 41 43 47 51 50 48 50 53 57 63 66 63 62 62 58 56 63 68 71 75 79 82 85 89 93 96 93 89 93 97 93 93 87 67 59 67 73 79 80 80 81 78 74 70 55 40 36 37 36 32
65 67 64 63 63 60 59 64 67 66 65 65 62 60 61 59 58 59 57 53 49 45 42 42 41 40 38 35 34 34 35 34 33 31 28 29 32 35 37 41 47 53 54 54 54 53 56 62 65 62 55 51 50 52 61 65 67 72 75 77 82 84 89 95 94 88 92 96 89 93 94 73 61 70 75 77 77 76 77 74 74 75 63 47 42 40 39 38
68 67 65 63 62 60 61 65 68 66 64 63 61 59 61 61 60 61 60 56 51 49 48 45 43 41 37 35 35 34 35 34 33 33 31 30 31 31 32 36 43 49 52 55 56 55 57 61 62 60 52 47 49 54 60 63 67 72 71 72 77 79 80 86 87 87 93 94 90 97 97 73 61 71 76 76 75 72 73 71 70 76 74 63 53 45 43 42
67 67 66 64 63 65 67 66 69 71 68 65 62 59 59 60 61 62 61 59 55 54 54 51 45 40 37 37 35 33 34 32 31 32 31 30 27 26 29 32 35 41 45 49 53 53 56 58 60 61 58 52 50 54 61 65 68 68 67 69 72 73 78 83 86 90 91 85 83 94 91 68 59 68 73 75 75 69 69 67 60 66 75 72 60 50 46 42
68 68 70 69 67 70 72 71 71 72 71 69 65 61 59 59 60 60 60 60 58 56 55 53 49 45 42 41 38 36 36 32 30 31 30 29 26 25 28 28 30 33 37 43 48 49 53 57 57 60 61 58 51 48 53 58 60 58 59 64 68 70 77 83 88 93 88 78 79 86 80 63 56 61 64 68 69 65 65 65 58 59 67 67 59 51 45 41
67 68 73 75 74 75 75 72 71 70 71 70 66 64 63 60 60 60 59 59 59 57 56 54 52 50 47 44 41 39 39 35 33 34 33 32 30 27 27 28 30 29 30 36 41 45 52 56 54 56 57 52 43 39 42 49 52 51 50 53 57 62 67 74 82 84 77 76 77 72 68 66 60 57 59 62 63 62 60 59 57 57 58 57 53 46 42 41
66 66 70 73 75 77 77 75 74 71 69 68 66 66 65 63 62 61 61 61 60 58 58 56 56 54 51 48 45 41 42 40 38 38 35 35 34 30 28 29 29 27 27 31 32 37 47 50 47 50 49 42 38 36 37 43 46 43 40 39 41 47 55 64 70 67 66 74 70 56 59 66 59 54 57 60 62 63 59 52 50 52 50 48 48 45 42 41
67 65 65 67 69 74 77 76 76 75 71 69 70 70 68 67 66 64 65 65 62 59 59 57 57 57 55 54 48 44 46 45 42 42 39 37 37 34 30 30 30 28 28 31 31 33 41 42 40 42 41 37 37 36 33 36 37 34 34 33 31 35 45 53 55 53 60 69 58 45 50 54 50 54 59 59 63 67 62 51 46 46 44 42 45 46 44 43
67 67 66 66 67 70 71 71 74 78 77 75 75 75 74 72 71 70 71 71 67 63 61 59 58 58 58 57 53 50 50 47 43 44 44 41 40 38 34 32 32 32 32 36 38 35 38 40 38 39 40 36 36 36 33 33 33 30 30 30 30 31 35 39 40 40 50 57 46 41 46 45 44 54 60 58 60 65 63 54 48 46 44 42 42 43 44 44
67 66 67 69 70 70 70 72 75 80 81 79 77 78 77 76 76 76 77 75 72 70 69 65 61 59 59 58 55 53 53 50 47 47 46 43 41 40 38 35 37 37 34 37 42 39 37 40 39 40 40 35 32 33 32 32 33 32 27 25 27 29 30 31 31 31 39 43 38 39 45 43 39 46 54 58 59 61 61 56 48 46 46 45 43 42 42 43
69 67 66 70 73 73 74 76 78 79 80 80 79 78 78 79 79 79 78 75 73 75 76 72 67 66 65 62 58 55 54 53 51 49 48 46 42 41 40 37 40 43 39 38 41 40 40 42 41 38 36 32 31 32 31 30 30 28 23 19 21 25 27 27 27 27 30 32 33 38 42 37 32 36 47 56 59 59 60 56 47 41 42 44 45 43 41 40
76 73 71 73 75 74 75 78 79 78 76 77 79 78 78 79 79 78 78 76 74 75 75 74 73 74 74 71 65 59 54 53 52 49 49 48 47 45 44 42 42 45 45 43 44 44 44 43 41 38 36 34 33 32 31 29 28 25 22 19 19 22 25 25 23 23 24 25 28 33 31 27 29 33 38 47 55 56 55 52 46 38 36 39 41 41 40 39